Regional Weather Roundup
Issued by NWS

Home | Current Version | Previous Version | Graphics & Text | Print | Product List | Glossary On
Versions: 1 2 3 4 5 6 7 8 9 10 11 12 13 14 15 16 17 18 19 20 21 22 23 24 25 26 27
000
ASUS45 KCYS 241510
RWRWY

WYOMING REGIONAL WEATHER ROUNDUP
NATIONAL WEATHER SERVICE CHEYENNE WY
900 AM MDT MON JUL 24 2017

NOTE:  "FAIR" INDICATES FEW OR NO CLOUDS BELOW 12,000 FEET
WITH NO SIGNIFICANT WEATHER AND/OR OBSTRUCTIONS TO VISIBILITY.

WYZ001-241600-
YELLOWSTONE NATIONAL PARK

CITY           SKY/WX    TMP DP  RH WIND       PRES   REMARKS
LK YELLOWSTONE   N/A     61  47  59 CALM      30.28S
W YELLOWSTONE  NOT AVBL

$$
WYZ002>013-054>058-071-098>099-241600-
NORTHERN WYOMING

CITY           SKY/WX    TMP DP  RH WIND       PRES   REMARKS
JACKSON        SUNNY     59  43  55 CALM      30.20S
CODY           FAIR      82  45  27 CALM      30.03R
GREYBULL       FAIR      74  32  21 CALM      29.96R
WORLAND        FAIR      73  45  36 SW6       29.97S
SHERIDAN       FAIR      75  50  41 CALM      29.92S
BUFFALO        FAIR      83  37  19 S3        30.00S
GILLETTE       FAIR      78  55  44 W18       29.93F
HULETT         FAIR      75  55  50 CALM      29.96S
NEWCASTLE      FAIR      79  46  31 S16G25    29.96F

$$
WYZ014>020-022>026-101>103-241600-
CENTRAL WYOMING

CITY           SKY/WX    TMP DP  RH WIND       PRES   REMARKS
BIG PINEY      FAIR      61  44  53 VRB3      30.26R
PINEDALE       FAIR      63  41  45 E7        30.27R
DUBOIS         FAIR      72  34  25 N8        30.21S
LANDER         FAIR      73  38  27 CALM      30.12R
RIVERTON       FAIR      77  33  20 CALM      30.10R
CASPER         FAIR      80  35  19 SW15      30.08S
DOUGLAS        FAIR      78  42  27 NW5       30.04S

$$
WYZ021-027>030-104>119-241600-
SOUTHERN WYOMING

CITY           SKY/WX    TMP DP  RH WIND       PRES   REMARKS
EVANSTON       PTSUNNY   66  44  45 SW6       30.25S
KEMMERER         N/A     66  37  34 CALM      30.28R
FORT BRIDGER   CLOUDY    68  39  34 W5        30.27R
ROCK SPRINGS   CLOUDY    70  37  29 SW8       30.24R
RAWLINS        FAIR      72  32  23 S6        30.24R
SARATOGA       FAIR      70  43  37 SE8       30.27R
LARAMIE        FAIR      65  45  48 SE6       30.25R
CHEYENNE       FAIR      78  46  32 CALM      30.15R
TORRINGTON     FAIR      79  57  46 CALM      29.98R
PINE BLUFFS    FAIR      75  55  50 S9        30.08F

$$




USA.gov is the U.S. government's official web portal to all federal, state and local government web resources and services.